Weather History for Chignik, AK

Change the Weather History Date:

Sunday, February 10, 2013

  Actual Average Record
Temperature  
Mean Temperature 26 °F -  
Max Temperature 28 °F 34 °F 44 °F (2001)
Min Temperature 23 °F 27 °F 12 °F (2009)
Degree Days  
Heating Degree Days 40    
Moisture  
Dew Point 15 °F    
Average Humidity 63    
Maximum Humidity 69    
Minimum Humidity 54    
Precipitation  
Precipitation 0.00 in - - ()
Sea Level Pressure  
Sea Level Pressure 29.65 in    
Wind  
Wind Speed 8 mph (West)    
Max Wind Speed 16 mph    
Max Gust Speed 20 mph    
Visibility 10 miles    
Events      
Averages and records for this station are not official NWS values.
T = Trace of Precipitation, MM = Missing Value Source: NWS Daily Summary

Daily Weather History Graph

Daily Weather History Graph

Search for Another Location

Airport:

Trip Planner

Search our weather history database for the weather conditions in past years. The results will help you decide how hot, cold, wet, or windy it might be!

Date:

Astronomy

Feb. 10, 2013 Rise Set
Actual Time 9:09 AM AKST 6:26 PM AKST
Civil Twilight 8:29 AM AKST 7:06 PM AKST
Nautical Twilight 7:45 AM AKST 7:50 PM AKST
Astronomical Twilight 7:02 AM AKST 8:34 PM AKST
Moon 8:49 AM AKST (2/10) 7:52 PM AKST (2/10)
Length of Visible Light 10h 36m
Length of Day
9h 16m
New Moon, 0% of the Moon is Illuminated
Feb 10
New Moon
Feb 17
First Quarter
Feb 25
Full
Mar 4
Last Quarter
Mar 11
New

Hourly Weather History & Observations

Time (AKST) Temp. Windchill Dew Point Humidity Pressure Visibility Wind Dir Wind Speed Gust Speed Precip Events Conditions
3:56 PM 28.4 °F 19.1 °F 17.6 °F 64% 29.54 in 10.0 mi West 10.4 mph 17.3 mph N/A   Overcast
4:16 PM 28.4 °F 19.1 °F 17.6 °F 64% 29.55 in 10.0 mi West 10.4 mph - N/A   Overcast
4:36 PM 28.4 °F 19.1 °F 17.6 °F 64% 29.56 in 10.0 mi West 10.4 mph 17.3 mph N/A   Overcast
4:56 PM 28.4 °F 16.6 °F 17.6 °F 64% 29.57 in 10.0 mi West 16.1 mph 19.6 mph N/A   Overcast
5:16 PM 28.4 °F 19.1 °F 15.8 °F 59% 29.59 in 10.0 mi WNW 10.4 mph - N/A   Overcast
5:36 PM 26.6 °F 17.5 °F 15.8 °F 64% 29.60 in 10.0 mi WNW 9.2 mph 17.3 mph N/A   Overcast
5:56 PM 28.4 °F 19.7 °F 15.8 °F 59% 29.61 in 10.0 mi West 9.2 mph 16.1 mph N/A   Overcast
6:16 PM 26.6 °F 16.8 °F 15.8 °F 64% 29.62 in 10.0 mi West 10.4 mph 19.6 mph N/A   Overcast
6:36 PM 26.6 °F 17.5 °F 15.8 °F 64% 29.63 in 10.0 mi West 9.2 mph 16.1 mph N/A   Overcast
6:56 PM 26.6 °F 18.2 °F 15.8 °F 64% 29.64 in 10.0 mi West 8.1 mph - N/A   Overcast
7:16 PM 26.6 °F 18.2 °F 15.8 °F 64% 29.65 in 10.0 mi WNW 8.1 mph - N/A   Overcast
7:36 PM 26.6 °F 18.2 °F 15.8 °F 64% 29.65 in 10.0 mi NNW 8.1 mph - N/A   Overcast
7:56 PM 26.6 °F 18.2 °F 15.8 °F 64% 29.66 in 10.0 mi West 8.1 mph - N/A   Mostly Cloudy
8:16 PM 26.6 °F 20.0 °F 15.8 °F 64% 29.67 in 10.0 mi West 5.8 mph - N/A   Partly Cloudy
8:36 PM 26.6 °F 21.2 °F 15.8 °F 64% 29.68 in 10.0 mi ESE 4.6 mph - N/A   Clear
8:56 PM 24.8 °F 17.9 °F 15.8 °F 69% 29.68 in 10.0 mi ESE 5.8 mph - N/A   Clear
9:16 PM 24.8 °F 20.5 °F 14.0 °F 64% 29.69 in 10.0 mi NNE 3.5 mph - N/A   Clear
9:36 PM 24.8 °F 20.5 °F 15.8 °F 69% 29.69 in 10.0 mi SSE 3.5 mph - N/A   Clear
9:56 PM 24.8 °F - 12.2 °F 59% 29.69 in 10.0 mi Calm Calm - N/A   Clear
10:16 PM 24.8 °F - 14.0 °F 64% 29.70 in 10.0 mi Calm Calm - N/A   Clear
10:36 PM 24.8 °F - 12.2 °F 59% 29.70 in 10.0 mi Calm Calm - N/A   Clear
10:56 PM 24.8 °F - 14.0 °F 64% 29.70 in 10.0 mi Calm Calm - N/A   Clear
11:16 PM 23.0 °F - 12.2 °F 63% 29.70 in 10.0 mi Calm Calm - N/A   Clear
11:36 PM 23.0 °F - 14.0 °F 68% 29.71 in 10.0 mi Calm Calm - N/A   Clear
11:56 PM 24.8 °F - 10.4 °F 54% 29.71 in 10.0 mi Calm Calm - N/A   Clear